Updated26/01/2021 01:45 
 

GeoURL
free counters
Scottish Weather Network UK Weather Network Cumulus Top Weather Sites

Peebles Weather - Wunderground Map

Raw Data, Raw Data Expanded

Ignore low humidity and Dew Point values. Something wrong with the sensor.
Daytime temperatures are in direct sunlight so may be higher than official air temperature values.
As with any other website, we log your IP address and browser type in the server logs for diagnostic reasons. Cookies are used to record visit time and gauges preferences. No personal information is stored or processed.

All times are in local time (GMT, or BST in summer) unless specified.

2021/01/26 01:20 EGPH 260120Z VRB02KT 9999 -RA BKN012 OVC024 02/01 Q1011 RERA
0.4°C 0.0 mm 0.0 mm 3.0 mm 0.0 mph 0.0 mph 1006.6 hPa 11% X-Ray Solar Flare Level
Planetary K-Index
Planetary K-Index History
Station Warn Rain Snow Flood Wind Ltng Heat Cold Glob Moon Temp Rain 1h Rain Tue Rain 24h Wind 10m Gust Pressure Hum Proton Levels
snow
m Waxing Gibbous Cold F0-NE F: A: Kp:0 SSN:0

Wundermap

 

XHTML 1.1 | CSS